27/04/2024 16:00:00,0.696
27/04/2024 16:15:00,0.696
27/04/2024 16:30:00,0.695
27/04/2024 16:45:00,0.695
27/04/2024 17:00:00,0.695
27/04/2024 17:15:00,0.695
27/04/2024 17:30:00,0.693
27/04/2024 17:45:00,0.693
27/04/2024 18:00:00,0.693
27/04/2024 18:15:00,0.692
27/04/2024 18:30:00,0.692
27/04/2024 18:45:00,0.692
27/04/2024 19:00:00,0.692
27/04/2024 19:15:00,0.692
27/04/2024 19:30:00,0.692
27/04/2024 19:45:00,0.692
27/04/2024 20:00:00,0.692
27/04/2024 20:15:00,0.692
27/04/2024 20:30:00,0.692
27/04/2024 20:45:00,0.692
27/04/2024 21:00:00,0.692
27/04/2024 21:15:00,0.692
27/04/2024 21:30:00,0.692
27/04/2024 21:45:00,0.692
27/04/2024 22:00:00,0.692
27/04/2024 22:15:00,0.692
27/04/2024 22:30:00,0.692
27/04/2024 22:45:00,0.692
27/04/2024 23:00:00,0.692
27/04/2024 23:15:00,0.692
27/04/2024 23:30:00,0.692
27/04/2024 23:45:00,0.692
28/04/2024 00:00:00,0.692
28/04/2024 00:15:00,0.692
28/04/2024 00:30:00,0.692
28/04/2024 00:45:00,0.692
28/04/2024 01:00:00,0.692
28/04/2024 01:15:00,0.692
28/04/2024 01:30:00,0.692
28/04/2024 01:45:00,0.692
28/04/2024 02:00:00,0.692
28/04/2024 02:15:00,0.692
28/04/2024 02:30:00,0.692
28/04/2024 02:45:00,0.692
28/04/2024 03:00:00,0.692
28/04/2024 03:15:00,0.692
28/04/2024 03:30:00,0.692
28/04/2024 03:45:00,0.692
28/04/2024 04:00:00,0.692
28/04/2024 04:15:00,0.692
28/04/2024 04:30:00,0.692
28/04/2024 04:45:00,0.692
28/04/2024 05:00:00,0.692
28/04/2024 05:15:00,0.693
28/04/2024 05:30:00,0.693
28/04/2024 05:45:00,0.693
28/04/2024 06:00:00,0.693
28/04/2024 06:15:00,0.693
28/04/2024 06:30:00,0.693
28/04/2024 06:45:00,0.693
28/04/2024 07:00:00,0.693
28/04/2024 07:15:00,0.693
28/04/2024 07:30:00,0.693
28/04/2024 07:45:00,0.693
28/04/2024 08:00:00,0.693
28/04/2024 08:15:00,0.692
28/04/2024 08:30:00,0.692
28/04/2024 08:45:00,0.693
28/04/2024 09:00:00,0.693
28/04/2024 09:15:00,0.692
28/04/2024 09:30:00,0.693
28/04/2024 09:45:00,0.692
28/04/2024 10:00:00,0.692
28/04/2024 10:15:00,0.692
28/04/2024 10:30:00,0.692
28/04/2024 10:45:00,0.692
28/04/2024 11:00:00,0.692
28/04/2024 11:15:00,0.692
28/04/2024 11:30:00,0.692
28/04/2024 11:45:00,0.692
28/04/2024 12:00:00,0.692
28/04/2024 12:15:00,0.692
28/04/2024 12:30:00,0.692
28/04/2024 12:45:00,0.692
28/04/2024 13:00:00,0.691
28/04/2024 13:15:00,0.691
28/04/2024 13:30:00,0.692
28/04/2024 13:45:00,0.692
28/04/2024 14:00:00,0.692
28/04/2024 14:15:00,0.691
28/04/2024 14:30:00,0.692
28/04/2024 14:45:00,0.692
28/04/2024 15:00:00,0.691
28/04/2024 15:15:00,0.691
28/04/2024 15:30:00,0.691
28/04/2024 15:45:00,0.691
28/04/2024 16:00:00,0.691
28/04/2024 16:15:00,0.691
28/04/2024 16:30:00,0.691
28/04/2024 16:45:00,0.691
28/04/2024 17:00:00,0.69
28/04/2024 17:15:00,0.69
28/04/2024 17:30:00,0.69
28/04/2024 17:45:00,0.69
28/04/2024 18:00:00,0.69
28/04/2024 18:15:00,0.69
28/04/2024 18:30:00,0.69
28/04/2024 18:45:00,0.69
28/04/2024 19:00:00,0.69
28/04/2024 19:15:00,0.69
28/04/2024 19:30:00,0.689
28/04/2024 19:45:00,0.689
28/04/2024 20:00:00,0.689
28/04/2024 20:15:00,0.689
28/04/2024 20:30:00,0.689
28/04/2024 20:45:00,0.689
28/04/2024 21:00:00,0.689
28/04/2024 21:15:00,0.689
28/04/2024 21:30:00,0.689
28/04/2024 21:45:00,0.689
28/04/2024 22:00:00,0.689
28/04/2024 22:15:00,0.689
28/04/2024 22:30:00,0.689
28/04/2024 22:45:00,0.689
28/04/2024 23:00:00,0.689
28/04/2024 23:15:00,0.689
28/04/2024 23:30:00,0.689
28/04/2024 23:45:00,0.689
29/04/2024 00:00:00,0.689
29/04/2024 00:15:00,0.689
29/04/2024 00:30:00,0.689
29/04/2024 00:45:00,0.689
29/04/2024 01:00:00,0.689
29/04/2024 01:15:00,0.689
29/04/2024 01:30:00,0.689
29/04/2024 01:45:00,0.689
29/04/2024 02:00:00,0.689
29/04/2024 02:15:00,0.689
29/04/2024 02:30:00,0.689
29/04/2024 02:45:00,0.689
29/04/2024 03:00:00,0.689
29/04/2024 03:15:00,0.689
29/04/2024 03:30:00,0.689
29/04/2024 03:45:00,0.689
29/04/2024 04:00:00,0.689
29/04/2024 04:15:00,0.69
29/04/2024 04:30:00,0.69
29/04/2024 04:45:00,0.69
29/04/2024 05:00:00,0.69
29/04/2024 05:15:00,0.69
29/04/2024 05:30:00,0.691
29/04/2024 05:45:00,0.691
29/04/2024 06:00:00,0.691
29/04/2024 06:15:00,0.692
29/04/2024 06:30:00,0.692
29/04/2024 06:45:00,0.692
29/04/2024 07:00:00,0.693
29/04/2024 07:15:00,0.695
29/04/2024 07:30:00,0.696
29/04/2024 07:45:00,0.697
29/04/2024 08:00:00,0.698
29/04/2024 08:15:00,0.7
29/04/2024 08:30:00,0.7
29/04/2024 08:45:00,0.701
29/04/2024 09:00:00,0.702
29/04/2024 09:15:00,0.702
29/04/2024 09:30:00,0.704
29/04/2024 09:45:00,0.706
29/04/2024 10:00:00,0.707
29/04/2024 10:15:00,0.708
29/04/2024 10:30:00,0.709
29/04/2024 10:45:00,0.711
29/04/2024 11:00:00,0.711
29/04/2024 11:15:00,0.711
29/04/2024 11:30:00,0.714
29/04/2024 11:45:00,0.72
29/04/2024 12:00:00,0.722
29/04/2024 12:15:00,0.73
29/04/2024 12:30:00,0.735
29/04/2024 12:45:00,0.74
29/04/2024 13:00:00,0.751
29/04/2024 13:15:00,0.777
29/04/2024 13:30:00,0.805
29/04/2024 13:45:00,0.84
29/04/2024 14:00:00,0.863
29/04/2024 14:15:00,0.899
29/04/2024 14:30:00,0.959
29/04/2024 14:45:00,1.03
29/04/2024 15:00:00,1.071
29/04/2024 15:15:00,1.11
29/04/2024 15:30:00,1.186
29/04/2024 15:45:00,1.267
29/04/2024 16:00:00,1.322
29/04/2024 16:15:00,1.362
29/04/2024 16:30:00,1.384
29/04/2024 16:45:00,1.403
29/04/2024 17:00:00,1.417
29/04/2024 17:15:00,1.432
29/04/2024 17:30:00,1.443
29/04/2024 17:45:00,1.447
29/04/2024 18:00:00,1.445
29/04/2024 18:15:00,1.44
29/04/2024 18:30:00,1.434
29/04/2024 18:45:00,1.409
29/04/2024 19:00:00,1.378
29/04/2024 19:15:00,1.345
29/04/2024 19:30:00,1.315
29/04/2024 19:45:00,1.286
29/04/2024 20:00:00,1.254
29/04/2024 20:15:00,1.228
29/04/2024 20:30:00,1.202
29/04/2024 20:45:00,1.182
29/04/2024 21:00:00,1.163
29/04/2024 21:15:00,1.146
29/04/2024 21:30:00,1.132
29/04/2024 21:45:00,1.117
29/04/2024 22:00:00,1.104
29/04/2024 22:15:00,1.092
29/04/2024 22:30:00,1.084
29/04/2024 22:45:00,1.077
29/04/2024 23:00:00,1.069
29/04/2024 23:15:00,1.066
29/04/2024 23:30:00,1.065
29/04/2024 23:45:00,1.065
30/04/2024 00:00:00,1.062
30/04/2024 00:15:00,1.058
30/04/2024 00:30:00,1.058
30/04/2024 00:45:00,1.058
30/04/2024 01:00:00,1.054
30/04/2024 01:15:00,1.047
30/04/2024 01:30:00,1.037
30/04/2024 01:45:00,1.027
30/04/2024 02:00:00,1.018
30/04/2024 02:15:00,1.01
30/04/2024 02:30:00,1.001
30/04/2024 02:45:00,0.992
30/04/2024 03:00:00,0.984
30/04/2024 03:15:00,0.978
30/04/2024 03:30:00,0.971
30/04/2024 03:45:00,0.964
30/04/2024 04:00:00,0.959
30/04/2024 04:15:00,0.952
30/04/2024 04:30:00,0.946
30/04/2024 04:45:00,0.94
30/04/2024 05:00:00,0.935
30/04/2024 05:15:00,0.929
30/04/2024 05:30:00,0.925
30/04/2024 05:45:00,0.92
30/04/2024 06:00:00,0.916
30/04/2024 06:15:00,0.913
30/04/2024 06:30:00,0.909
30/04/2024 06:45:00,0.906
30/04/2024 07:00:00,0.904
30/04/2024 07:15:00,0.902
30/04/2024 07:30:00,0.899
30/04/2024 07:45:00,0.897
30/04/2024 08:00:00,0.895
30/04/2024 08:15:00,0.894
30/04/2024 08:30:00,0.894
30/04/2024 08:45:00,0.894
30/04/2024 09:00:00,0.896
30/04/2024 09:15:00,0.898
30/04/2024 09:30:00,0.902
30/04/2024 09:45:00,0.906
30/04/2024 10:00:00,0.913
30/04/2024 10:15:00,0.921
30/04/2024 10:30:00,0.935
30/04/2024 10:45:00,0.959
30/04/2024 11:00:00,0.992
30/04/2024 11:15:00,1.026
30/04/2024 11:30:00,1.045
30/04/2024 11:45:00,1.054
30/04/2024 12:00:00,1.075
30/04/2024 12:15:00,1.079
30/04/2024 12:30:00,1.095
30/04/2024 12:45:00,1.094
30/04/2024 13:00:00,1.088
30/04/2024 13:15:00,1.079
30/04/2024 13:30:00,1.069
30/04/2024 13:45:00,1.06
30/04/2024 14:00:00,1.054
30/04/2024 14:15:00,1.045
30/04/2024 14:30:00,1.035
30/04/2024 14:45:00,1.026
30/04/2024 15:00:00,1.015
30/04/2024 15:15:00,1.005
30/04/2024 15:30:00,0.997
30/04/2024 15:45:00,0.989
30/04/2024 16:00:00,0.98
30/04/2024 16:15:00,0.972
30/04/2024 16:30:00,0.966
30/04/2024 16:45:00,0.959
30/04/2024 17:00:00,0.953
30/04/2024 17:15:00,0.948
30/04/2024 17:30:00,0.942
30/04/2024 17:45:00,0.937
30/04/2024 18:00:00,0.934
30/04/2024 18:15:00,0.928
30/04/2024 18:30:00,0.925
30/04/2024 18:45:00,0.919
30/04/2024 19:00:00,0.917
30/04/2024 19:15:00,0.914
30/04/2024 19:30:00,0.909
30/04/2024 19:45:00,0.906
30/04/2024 20:00:00,0.903
30/04/2024 20:15:00,0.899
30/04/2024 20:30:00,0.896
30/04/2024 20:45:00,0.893
30/04/2024 21:00:00,0.891
30/04/2024 21:15:00,0.886
30/04/2024 21:30:00,0.884
30/04/2024 21:45:00,0.882
30/04/2024 22:00:00,0.878
30/04/2024 22:15:00,0.876
30/04/2024 22:30:00,0.874
30/04/2024 22:45:00,0.871
30/04/2024 23:00:00,0.869
30/04/2024 23:15:00,0.865
30/04/2024 23:30:00,0.863
30/04/2024 23:45:00,0.862
01/05/2024 00:00:00,0.86
01/05/2024 00:15:00,0.856
01/05/2024 00:30:00,0.855
01/05/2024 00:45:00,0.853
01/05/2024 01:00:00,0.851
01/05/2024 01:15:00,0.849
01/05/2024 01:30:00,0.848
01/05/2024 01:45:00,0.845
01/05/2024 02:00:00,0.842
01/05/2024 02:15:00,0.841
01/05/2024 02:30:00,0.84
01/05/2024 02:45:00,0.839
01/05/2024 03:00:00,0.836
01/05/2024 03:15:00,0.834
01/05/2024 03:30:00,0.832
01/05/2024 03:45:00,0.831
01/05/2024 04:00:00,0.83
01/05/2024 04:15:00,0.829
01/05/2024 04:30:00,0.828
01/05/2024 04:45:00,0.826
01/05/2024 05:00:00,0.823
01/05/2024 05:15:00,0.823
01/05/2024 05:30:00,0.821
01/05/2024 05:45:00,0.82
01/05/2024 06:00:00,0.819
01/05/2024 06:15:00,0.818
01/05/2024 06:30:00,0.817
01/05/2024 06:45:00,0.816
01/05/2024 07:00:00,0.814
01/05/2024 07:15:00,0.812
01/05/2024 07:30:00,0.811
01/05/2024 07:45:00,0.81
01/05/2024 08:00:00,0.809
01/05/2024 08:15:00,0.808
01/05/2024 08:30:00,0.808
01/05/2024 08:45:00,0.806
01/05/2024 09:00:00,0.806
01/05/2024 09:15:00,0.805
01/05/2024 09:30:00,0.803
01/05/2024 09:45:00,0.801
01/05/2024 10:00:00,0.801
01/05/2024 10:15:00,0.8
01/05/2024 10:30:00,0.799
01/05/2024 10:45:00,0.798
01/05/2024 11:00:00,0.798
01/05/2024 11:15:00,0.797
01/05/2024 11:30:00,0.796
01/05/2024 11:45:00,0.795
01/05/2024 12:00:00,0.794
01/05/2024 12:15:00,0.794
01/05/2024 12:30:00,0.791
01/05/2024 12:45:00,0.79
01/05/2024 13:00:00,0.789
01/05/2024 13:15:00,0.787
01/05/2024 13:30:00,0.787
01/05/2024 13:45:00,0.787
01/05/2024 14:00:00,0.786
01/05/2024 14:15:00,0.785
01/05/2024 14:30:00,0.784
01/05/2024 14:45:00,0.784
01/05/2024 15:00:00,0.783
01/05/2024 15:15:00,0.78
01/05/2024 15:30:00,0.78
01/05/2024 15:45:00,0.778
01/05/2024 16:00:00,0.777
01/05/2024 16:15:00,0.777
01/05/2024 16:30:00,0.776
01/05/2024 16:45:00,0.776
01/05/2024 17:00:00,0.775
01/05/2024 17:15:00,0.774
01/05/2024 17:30:00,0.772
01/05/2024 17:45:00,0.772
01/05/2024 18:00:00,0.769
01/05/2024 18:15:00,0.769
01/05/2024 18:30:00,0.769
01/05/2024 18:45:00,0.768
01/05/2024 19:00:00,0.767
01/05/2024 19:15:00,0.766
01/05/2024 19:30:00,0.765
01/05/2024 19:45:00,0.765
01/05/2024 20:00:00,0.765
01/05/2024 20:15:00,0.764
01/05/2024 20:30:00,0.763
01/05/2024 20:45:00,0.763
01/05/2024 21:00:00,0.763
01/05/2024 21:15:00,0.761
01/05/2024 21:30:00,0.761
01/05/2024 21:45:00,0.761
01/05/2024 22:00:00,0.76
01/05/2024 22:15:00,0.76
01/05/2024 22:30:00,0.758
01/05/2024 22:45:00,0.758
01/05/2024 23:00:00,0.758
01/05/2024 23:15:00,0.757
01/05/2024 23:30:00,0.757
01/05/2024 23:45:00,0.756
02/05/2024 00:00:00,0.756
02/05/2024 00:15:00,0.756
02/05/2024 00:30:00,0.756
02/05/2024 00:45:00,0.755
02/05/2024 01:00:00,0.755
02/05/2024 01:15:00,0.755
02/05/2024 01:30:00,0.754
02/05/2024 01:45:00,0.754
02/05/2024 02:00:00,0.754
02/05/2024 02:15:00,0.754
02/05/2024 02:30:00,0.754
02/05/2024 02:45:00,0.754
02/05/2024 03:00:00,0.754
02/05/2024 03:15:00,0.753
02/05/2024 03:30:00,0.753
02/05/2024 03:45:00,0.752
02/05/2024 04:00:00,0.752
02/05/2024 04:15:00,0.752
02/05/2024 04:30:00,0.752
02/05/2024 04:45:00,0.752
02/05/2024 05:00:00,0.751
02/05/2024 05:15:00,0.751
02/05/2024 05:30:00,0.75
02/05/2024 05:45:00,0.75
02/05/2024 06:00:00,0.75
02/05/2024 06:15:00,0.75
02/05/2024 06:30:00,0.75
02/05/2024 06:45:00,0.75
02/05/2024 07:00:00,0.75
02/05/2024 07:15:00,0.749
02/05/2024 07:30:00,0.749
02/05/2024 07:45:00,0.747
02/05/2024 08:00:00,0.747
02/05/2024 08:15:00,0.747
02/05/2024 08:30:00,0.747
02/05/2024 08:45:00,0.746
02/05/2024 09:00:00,0.746
02/05/2024 09:15:00,0.746
02/05/2024 09:30:00,0.745
02/05/2024 09:45:00,0.746
02/05/2024 10:00:00,0.745
02/05/2024 10:15:00,0.745
02/05/2024 10:30:00,0.745
02/05/2024 10:45:00,0.745
02/05/2024 11:00:00,0.745
02/05/2024 11:15:00,0.745
